• In Netherlands
  • List of Countries
  • For 7 days
  • Water Temperature
  • Satellite Maps
  • Weather Map
  • Weather Widgets
  • user-avatar
    Login

    Hourly Weather Brest

    Today, 18 November, Saturday

    Time Temperature Precipitation Wind Pressure Humidity
    00:00 +4°C° 0 mm 1 mps 753 mmHg 88%
    01:00 +4°C° 0 mm 1 mps 753 mmHg 89%
    02:00 +3°C° 0 mm 1 mps 753 mmHg 90%
    03:00 +3°C° 0 mm 1 mps 752 mmHg 90%
    04:00 +3°C° 0 mm 1 mps 752 mmHg 91%
    05:00 +3°C° 0 mm 1 mps 752 mmHg 91%
    06:00 +3°C° 0 mm 1 mps 752 mmHg 91%
    07:00 +3°C° 0 mm 1 mps 751 mmHg 91%
    08:00 +3°C° 0 mm 1 mps 751 mmHg 91%
    09:00 +3°C° 0 mm 1 mps 751 mmHg 87%
    10:00 +4°C° 0 mm 1 mps 751 mmHg 84%
    11:00 +5°C° 0 mm 1 mps 750 mmHg 80%
    12:00 +4°C° 0 mm 2 mps 750 mmHg 78%
    13:00 +4°C° 0 mm 2 mps 749 mmHg 76%
    14:00 +5°C° 0 mm 2 mps 749 mmHg 74%
    15:00 +4°C° 0 mm 2 mps 748 mmHg 75%
    16:00 +4°C° 0 mm 2 mps 748 mmHg 77%
    17:00 +3°C° 0 mm 2 mps 747 mmHg 79%
    18:00 +2°C° 0 mm 3 mps 747 mmHg 76%
    19:00 +2°C° 0 mm 3 mps 746 mmHg 74%
    20:00 +2°C° 0 mm 3 mps 746 mmHg 72%
    21:00 +2°C° 0 mm 3 mps 745 mmHg 72%
    22:00 +1°C° 0 mm 3 mps 745 mmHg 72%
    23:00 +1°C° 0 mm 3 mps 744 mmHg 73%

    Tomorrow, 19 November, Sunday

    Time Temperature Precipitation Wind Pressure Humidity
    00:00 0°C° 0 mm 4 mps 744 mmHg 75%
    01:00 0°C° 0 mm 4 mps 743 mmHg 77%
    02:00 0°C° 0 mm 4 mps 743 mmHg 79%
    03:00 0°C° 0.1 mm 5 mps 743 mmHg 80%
    04:00 0°C° 0.1 mm 5 mps 742 mmHg 81%
    05:00 0°C° 0.1 mm 5 mps 742 mmHg 82%
    06:00 0°C° 0.1 mm 5 mps 742 mmHg 83%
    07:00 0°C° 0.1 mm 5 mps 741 mmHg 84%
    08:00 0°C° 0.1 mm 5 mps 741 mmHg 85%
    09:00 +1°C° 0 mm 5 mps 741 mmHg 83%
    10:00 +1°C° 0 mm 6 mps 742 mmHg 81%
    11:00 +1°C° 0 mm 6 mps 742 mmHg 79%
    12:00 +2°C° 0 mm 6 mps 742 mmHg 78%
    13:00 +2°C° 0 mm 6 mps 742 mmHg 77%
    14:00 +2°C° 0 mm 6 mps 742 mmHg 75%
    15:00 +2°C° 0 mm 5 mps 742 mmHg 76%
    16:00 +2°C° 0 mm 5 mps 742 mmHg 77%
    17:00 +3°C° 0 mm 4 mps 742 mmHg 77%
    18:00 +1°C° 0 mm 4 mps 741 mmHg 78%
    19:00 +1°C° 0 mm 4 mps 741 mmHg 79%
    20:00 +1°C° 0 mm 4 mps 741 mmHg 79%
    21:00 +1°C° 0.1 mm 5 mps 741 mmHg 80%
    22:00 +1°C° 0.1 mm 5 mps 741 mmHg 80%
    23:00 0°C° 0.1 mm 5 mps 741 mmHg 80%

    Day after tomorrow, 20 November, Monday

    Time Temperature Precipitation Wind Pressure Humidity
    00:00 +1°C° 0.2 mm 5 mps 741 mmHg 81%
    01:00 +1°C° 0.2 mm 5 mps 741 mmHg 83%
    02:00 +1°C° 0.2 mm 5 mps 741 mmHg 84%
    03:00 0°C° 0.1 mm 5 mps 740 mmHg 84%
    04:00 0°C° 0.1 mm 4 mps 740 mmHg 85%
    05:00 -1°C° 0.1 mm 4 mps 740 mmHg 85%
    06:00 -1°C° 0.2 mm 4 mps 740 mmHg 86%
    07:00 -1°C° 0.2 mm 4 mps 740 mmHg 87%
    08:00 -1°C° 0.2 mm 4 mps 740 mmHg 88%
    09:00 0°C° 0.2 mm 4 mps 740 mmHg 88%
    10:00 0°C° 0.2 mm 4 mps 741 mmHg 88%
    11:00 +1°C° 0.2 mm 4 mps 741 mmHg 88%
    12:00 +1°C° 0.1 mm 4 mps 741 mmHg 87%
    13:00 +1°C° 0.1 mm 4 mps 741 mmHg 86%
    14:00 +1°C° 0.1 mm 4 mps 741 mmHg 84%
    15:00 +1°C° 0.4 mm 5 mps 742 mmHg 84%
    16:00 +1°C° 0.4 mm 5 mps 742 mmHg 84%
    17:00 +1°C° 0.4 mm 6 mps 742 mmHg 84%
    18:00 0°C° 0.3 mm 5 mps 743 mmHg 83%
    19:00 0°C° 0.3 mm 5 mps 743 mmHg 82%
    20:00 -1°C° 0.3 mm 5 mps 743 mmHg 80%
    21:00 -1°C° 0 mm 5 mps 743 mmHg 82%
    22:00 -2°C° 0 mm 4 mps 744 mmHg 85%
    23:00 -2°C° 0 mm 4 mps 744 mmHg 87%

    21 November, Tuesday

    Time Temperature Precipitation Wind Pressure Humidity
    00:00 -2°C° 0 mm 4 mps 744 mmHg 89%
    01:00 -2°C° 0 mm 4 mps 744 mmHg 91%
    02:00 -1°C° 0 mm 3 mps 744 mmHg 93%
    03:00 -1°C° 0 mm 3 mps 744 mmHg 93%
    04:00 -1°C° 0 mm 3 mps 744 mmHg 93%
    05:00 -1°C° 0 mm 2 mps 744 mmHg 93%
    06:00 -1°C° 0 mm 2 mps 744 mmHg 93%
    07:00 -1°C° 0 mm 2 mps 744 mmHg 92%
    08:00 -1°C° 0 mm 2 mps 744 mmHg 92%
    09:00 -1°C° 0 mm 2 mps 744 mmHg 89%
    10:00 +1°C° 0 mm 2 mps 745 mmHg 85%
    11:00 +1°C° 0 mm 2 mps 745 mmHg 82%
    12:00 +2°C° 0 mm 2 mps 745 mmHg 80%
    13:00 +2°C° 0 mm 2 mps 745 mmHg 78%
    14:00 +2°C° 0 mm 2 mps 745 mmHg 76%
    15:00 +1°C° 0 mm 2 mps 746 mmHg 80%
    16:00 +1°C° 0 mm 2 mps 746 mmHg 84%
    17:00 -1°C° 0 mm 2 mps 746 mmHg 88%
    18:00 -1°C° 0 mm 2 mps 746 mmHg 88%
    19:00 -1°C° 0 mm 2 mps 747 mmHg 89%
    20:00 -1°C° 0 mm 2 mps 747 mmHg 89%
    21:00 -1°C° 0 mm 2 mps 748 mmHg 90%
    22:00 -1°C° 0 mm 2 mps 748 mmHg 90%
    23:00 -1°C° 0 mm 2 mps 748 mmHg 90%

    22 November, Wednesday

    Time Temperature Precipitation Wind Pressure Humidity
    00:00 -1°C° 0 mm 2 mps 749 mmHg 91%
    01:00 -2°C° 0 mm 2 mps 749 mmHg 92%
    02:00 -2°C° 0 mm 2 mps 749 mmHg 92%
    03:00 -2°C° 0 mm 2 mps 749 mmHg 92%
    04:00 -2°C° 0 mm 2 mps 750 mmHg 92%
    05:00 -2°C° 0 mm 2 mps 750 mmHg 92%
    06:00 -2°C° 0 mm 2 mps 750 mmHg 92%
    07:00 -2°C° 0 mm 2 mps 750 mmHg 91%
    08:00 0°C° 0 mm 1 mps 751 mmHg 90%
    09:00 -2°C° 0 mm 2 mps 751 mmHg 87%
    10:00 -1°C° 0 mm 2 mps 751 mmHg 83%
    11:00 +1°C° 0 mm 2 mps 752 mmHg 80%
    12:00 +1°C° 0 mm 2 mps 752 mmHg 78%
    13:00 +1°C° 0 mm 3 mps 751 mmHg 76%
    14:00 +1°C° 0 mm 3 mps 751 mmHg 74%
    15:00 +1°C° 0 mm 3 mps 751 mmHg 77%
    16:00 0°C° 0 mm 3 mps 751 mmHg 80%
    17:00 0°C° 0 mm 3 mps 751 mmHg 83%
    18:00 0°C° 0 mm 3 mps 751 mmHg 82%
    19:00 -1°C° 0 mm 4 mps 751 mmHg 81%
    20:00 0°C° 0 mm 4 mps 751 mmHg 80%
    21:00 0°C° 0 mm 4 mps 751 mmHg 81%
    22:00 0°C° 0 mm 4 mps 751 mmHg 81%
    23:00 0°C° 0 mm 4 mps 751 mmHg 82%

    23 November, Thursday

    Time Temperature Precipitation Wind Pressure Humidity
    00:00 0°C° 0 mm 4 mps 751 mmHg 85%
    01:00 0°C° 0 mm 4 mps 751 mmHg 87%
    02:00 0°C° 0 mm 4 mps 751 mmHg 90%
    03:00 +1°C° 0 mm 3 mps 750 mmHg 91%
    04:00 +1°C° 0 mm 3 mps 750 mmHg 93%
    05:00 +1°C° 0 mm 3 mps 750 mmHg 95%
    06:00 +1°C° 0 mm 3 mps 750 mmHg 95%
    07:00 0°C° 0 mm 3 mps 751 mmHg 95%
    08:00 0°C° 0 mm 3 mps 751 mmHg 95%
    09:00 +1°C° 0 mm 3 mps 751 mmHg 92%
    10:00 +2°C° 0 mm 3 mps 751 mmHg 89%
    11:00 +3°C° 0 mm 3 mps 752 mmHg 86%
    12:00 +3°C° 0 mm 3 mps 751 mmHg 85%
    13:00 +4°C° 0 mm 3 mps 751 mmHg 84%
    14:00 +4°C° 0 mm 3 mps 751 mmHg 83%
    15:00 +4°C° 0 mm 3 mps 751 mmHg 86%
    16:00 +3°C° 0 mm 3 mps 751 mmHg 88%
    17:00 +2°C° 0 mm 3 mps 751 mmHg 91%
    18:00 +2°C° 0 mm 3 mps 751 mmHg 91%
    19:00 +2°C° 0 mm 3 mps 751 mmHg 91%
    20:00 +2°C° 0 mm 3 mps 751 mmHg 92%
    21:00 +2°C° 0 mm 3 mps 752 mmHg 92%
    22:00 +2°C° 0 mm 3 mps 752 mmHg 93%
    23:00 +2°C° 0 mm 3 mps 752 mmHg 93%
    Show more